This demonstration page uses our WeatherBlox Daily Observations layout. Learn more.

Left ArrowRight Arrow

39.01783, -85.05884

Hourly Observations for July 1, 2017

Temp ( °F °C ) Dew Point ( °F °C ) Humidity (%) Winds ( mph kmh ) Pressure ( in mb ) Visibility ( mi km ) Precip ( " mm )
12:20 am 00:20 Cloudy 70 21.1 70 21.1 100 100 SSW 3 6 29.88 1012 10 16 N/A
12:47 am 00:47 Cloudy with Light Rain 70 21 70 21 100 100 SW 3 6 29.88 1012 10 16 N/A
12:52 am 00:52 Cloudy 70 21.1 70 21.1 100 100 SSW 5 7 29.86 1011 10 16 N/A
1:08 am 01:08 Cloudy 69 20.6 69 20.6 100 100 SW 5 7 29.85 1011 10 16 N/A
1:41 am 01:41 Cloudy 69 20.6 69 20.6 100 100 SW 8 13 29.85 1011 10 16 N/A
1:52 am 01:52 Cloudy 69 20.6 69 20.6 100 100 SW 7 11 29.85 1011 10 16 N/A
2:52 am 02:52 Cloudy 70 21.1 70 21.1 100 100 WSW 8 13 29.86 1011 10 16 N/A
3:52 am 03:52 Cloudy 69 20.6 69 20.6 100 100 WSW 7 11 29.86 1011 10 16 N/A
4:52 am 04:52 Cloudy with Mist and Fog 69 20.6 69 20.6 100 100 W 10 17 29.87 1012 6 10 N/A
5:11 am 05:11 Cloudy with Mist and Fog 69 20.6 69 20.6 100 100 W 7 11 29.88 1012 2 2 N/A
5:37 am 05:37 Cloudy with Mist and Fog 69 20.6 69 20.6 100 100 W 8 13 29.88 1012 1 1 N/A
5:52 am 05:52 Cloudy with Mist and Fog 69 20.6 69 20.6 100 100 W 8 13 29.89 1012 1 1 N/A
6:21 am 06:21 Cloudy with Mist and Fog 69 20.6 69 20.6 100 100 WSW 7 11 29.91 1013 3 4 N/A
6:41 am 06:41 Cloudy with Mist and Fog 70 21.1 69 20.6 97 97 SW 8 13 29.91 1013 5 8 N/A
6:52 am 06:52 Cloudy with Mist and Fog 70 21.1 69 20.6 97 97 WSW 7 11 29.92 1013 6 10 N/A
7:52 am 07:52 Partly Cloudy with Mist and Fog 70 21.1 70 21.1 100 100 SW 6 9 29.93 1014 6 10 N/A
8:52 am 08:52 Cloudy with Mist and Fog 72 22.2 70 21.1 94 94 WSW 9 15 29.95 1014 6 10 N/A
9:43 am 09:43 Partly Cloudy 74 23.3 70 21.1 88 88 W 10 17 29.94 1014 9 14 N/A
9:52 am 09:52 Partly Cloudy 75 23.9 70 21.1 84 84 W 14 22 29.96 1014 9 14 N/A
10:52 am 10:52 Mostly Cloudy 77 25 71 21.7 82 82 WSW 9 15 29.96 1015 10 16 N/A
11:52 am 11:52 Cloudy 78 25.6 70 21.1 76 76 W 8 13 29.98 1015 10 16 N/A
12:52 pm 12:52 Cloudy 77 25 70 21.1 79 79 WSW 6 9 29.98 1015 10 16 N/A
1:52 pm 13:52 Cloudy 78 25.6 72 22.2 82 82 SSW 7 11 29.98 1015 10 16 N/A
2:52 pm 14:52 Mostly Cloudy 79 26.1 71 21.7 77 77 SW 7 11 29.98 1015 10 16 N/A
3:52 pm 15:52 Mostly Cloudy 82 27.8 70 21.1 67 67 W 7 11 29.96 1015 10 16 N/A
4:52 pm 16:52 Mostly Cloudy 83 28.3 68 20 61 61 WSW 9 15 29.95 1014 10 16 N/A
5:52 pm 17:52 Mostly Cloudy 84 28.9 68 20 59 59 W 10 17 29.94 1014 10 16 N/A
6:52 pm 18:52 Mostly Cloudy 81 27.2 68 20 65 65 W 8 13 29.96 1014 10 16 N/A
7:52 pm 19:52 Mostly Cloudy 81 27.2 68 20 65 65 W 7 11 29.96 1015 10 16 N/A
8:52 pm 20:52 Mostly Cloudy 78 25.6 67 19.4 69 69 WSW 3 6 29.98 1015 10 16 N/A
9:52 pm 21:52 Partly Cloudy 75 23.9 66 18.9 74 74 W 5 7 29.99 1016 10 16 N/A
10:52 pm 22:52 Partly Cloudy 73 22.8 65 18.3 76 76 SW 5 7 30.02 1017 10 16 N/A
11:52 pm 23:52 Clear 72 22.2 65 18.3 79 79 W 5 7 30.03 1017 8 13 N/A

Powered by AerisWeather